GFSGBSN_700_temp_135.txt.gz
Temp
2 2 2 2 3 2 2 2 3 3 3 3 3 3 3 3 3 4 4 4 4 4 4 4 4 4 4 4 4 4 4 4 4 4 5 5 5 5 5 5 4 4 5 4 4 4 4
2 2 2 2 2 2 2 2 2 3 3 2 2 2 3 3 3 3 3 3 3 3 4 3 3 3 3 4 4 4 4 4 4 4 4 4 4 4 5 5 4 4 4 4 4 4 4
2 2 1 2 1 1 1 2 2 2 2 2 2 2 2 3 3 3 3 3 2 3 3 3 3 3 3 4 4 4 4 3 4 3 4 4 4 4 4 4 4 4 4 4 4 4 4
2 2 2 2 1 1 1 1 1 1 2 2 1 1 2 2 2 2 2 2 2 2 2 2 3 2 2 3 3 3 3 3 3 3 3 3 4 4 4 4 3 3 3 4 4 4 4
2 2 2 2 2 1 1 1 1 1 1 2 1 1 1 1 2 2 2 1 1 1 1 2 2 2 2 3 3 3 3 3 3 3 3 3 3 3 4 3 3 3 2 3 4 3 3
1 1 1 2 2 3 1 2 1 1 1 1 1 1 1 1 1 2 1 1 1 1 1 1 2 1 2 2 2 2 2 2 2 2 2 2 2 3 3 3 2 2 2 1 2 2 3
-1 -0 0 1 1 1 2 2 2 0 2 1 1 1 1 0 1 1 1 1 1 0 1 0 1 1 1 1 1 2 1 1 1 2 2 2 2 2 2 2 1 1 -0 -0 1 1 0
-2 -1 -1 -1 -0 0 1 1 2 1 1 1 1 0 1 1 1 1 1 0 1 0 -0 -0 -1 0 1 1 1 1 1 1 1 1 1 1 1 1 1 1 0 0 -1 -0 -1 -1 -1
-2 -2 -2 -1 -1 -1 -0 0 1 1 1 1 0 1 0 1 1 0 0 -0 -0 -0 -1 0 -1 -0 0 0 1 1 1 0 0 0 1 1 1 0 -0 -1 -1 -0 -1 -1 -2 -2 -1
-2 -2 -2 -2 -1 -1 -1 -1 0 1 1 0 0 0 1 1 0 -0 -0 -1 -1 -1 -2 -1 1 -0 -0 0 -0 0 -0 -1 -0 -0 -0 -0 -1 -1 -2 -2 -2 -1 -1 -2 -2 -3 -4
-2 -2 -2 -2 -2 -1 -2 -1 -1 -0 -0 0 0 -0 0 1 -0 0 -0 -0 -1 -2 -2 -0 -1 -1 -0 -0 -1 -1 -1 -2 -1 -1 -1 -1 -2 -2 -3 -2 -2 -2 -2 -2 -2 -3 -5
-3 -3 -2 -2 -2 -2 -2 -2 -2 -1 -1 -1 -0 -1 0 -1 -0 -1 -0 -1 -2 -3 -3 -0 -1 -1 -1 -2 -2 -2 -2 -2 -2 -2 -2 -2 -2 -3 -3 -3 -3 -3 -3 -2 -3 -4 -4
-3 -3 -2 -2 -2 -1 -2 -2 -2 -1 -2 -3 -2 -0 -0 -1 -1 -1 -1 -2 -5 -3 -1 -1 -1 -1 -2 -2 -3 -2 -2 -2 -2 -2 -3 -3 -3 -3 -4 -3 -3 -5 -3 -3 -3 -3 -1
-4 -4 -3 -2 -1 -1 -1 -2 -2 -2 -2 -2 -3 -2 -1 -1 -1 -1 -2 -8 -5 -2 -1 -2 -1 -2 -3 -3 -3 -3 -3 -3 -3 -2 -2 -3 -4 -4 -5 -4 -4 -6 -6 -5 -4 -3 -3
-5 -4 -3 -2 -1 -1 -1 -1 -2 -2 -4 -4 -4 -3 -2 -3 -1 -2 -3 -8 -5 -1 -1 -1 -2 -3 -3 -3 -3 -3 -3 -3 -3 -2 -2 -3 -4 -4 -5 -5 -6 -6 -6 -6 -7 -7 -6
-6 -5 -4 -2 -1 -1 -1 -1 -1 -2 -3 -4 -4 -4 -4 -3 -3 -2 -5 -6 -4 -2 -2 -2 -1 -3 -3 -4 -3 -3 -3 -4 -3 -4 -4 -4 -4 -5 -5 -6 -6 -6 -6 -7 -7 -6 -5
-7 -7 -5 -2 -1 -0 1 0 -1 -2 -2 -3 -5 -4 -5 -3 -5 -4 -6 -6 -4 -3 -2 -2 -2 -3 -3 -3 -3 -3 -4 -4 -4 -4 -4 -4 -4 -5 -5 -6 -6 -6 -6 -7 -8 -7 -5
-7 -7 -6 -2 -1 0 0 0 -1 -1 -1 -4 -6 -5 -5 -5 -4 -7 -5 -7 -4 -3 -3 -3 -2 -2 -2 -3 -3 -3 -3 -4 -4 -5 -5 -5 -5 -6 -6 -6 -6 -6 -7 -7 -7 -7 -7
-8 -8 -6 -0 -1 -1 -1 -1 -1 -1 -1 -4 -6 -5 -7 -6 -6 -8 -7 -7 -6 -4 -3 -3 -3 -3 -2 -2 -3 -4 -4 -4 -5 -5 -5 -5 -6 -6 -7 -7 -6 -7 -7 -7 -7 -8 -7
-9 -8 -7 -4 -3 -2 -2 -4 -3 -3 -5 -5 -6 -7 -9 -9 -7 -7 -8 -7 -7 -6 -4 -3 -3 -3 -3 -3 -3 -4 -4 -5 -6 -6 -6 -6 -6 -5 -5 -6 -6 -6 -6 -7 -7 -8 -6
-9 -8 -8 -5 -3 -3 -3 -3 -4 -4 -5 -6 -5 -7 -6 -8 -8 -7 -8 -8 -7 -5 -4 -4 -4 -3 -3 -3 -4 -4 -4 -5 -6 -6 -6 -6 -6 -6 -6 -6 -7 -6 -6 -7 -7 -6 -7
-9 -9 -8 -8 -8 -5 -4 -4 -4 -4 -4 -5 -6 -6 -6 -8 -7 -9 -9 -9 -7 -5 -4 -4 -4 -4 -4 -3 -3 -4 -4 -5 -6 -6 -7 -7 -6 -6 -6 -6 -7 -6 -6 -7 -7 -6 -6
-10 -9 -8 -7 -7 -8 -7 -6 -5 -5 -5 -6 -5 -5 -4 -8 -9 -9 -8 -8 -6 -5 -5 -4 -4 -4 -5 -5 -4 -5 -5 -6 -6 -6 -7 -7 -7 -7 -7 -7 -7 -7 -6 -7 -6 -6 -6
-10 -10 -10 -9 -8 -7 -7 -7 -7 -7 -7 -6 -5 -5 -6 -9 -9 -9 -8 -7 -6 -5 -5 -5 -5 -5 -5 -5 -6 -6 -6 -7 -6 -7 -7 -7 -7 -7 -7 -7 -7 -6 -7 -7 -7 -6 -5
-10 -10 -10 -10 -9 -9 -9 -9 -9 -7 -7 -7 -8 -8 -8 -9 -10 -9 -7 -7 -6 -5 -5 -6 -6 -6 -6 -7 -7 -7 -7 -7 -7 -7 -7 -7 -7 -8 -8 -7 -7 -7 -8 -7 -7 -6 -6
-10 -11 -11 -10 -10 -10 -10 -10 -10 -10 -10 -9 -9 -9 -8 -9 -8 -8 -7 -7 -7 -7 -6 -7 -7 -7 -7 -7 -7 -7 -8 -7 -8 -8 -8 -8 -8 -8 -9 -8 -7 -7 -7 -7 -7 -7 -7
-11 -11 -11 -11 -11 -10 -10 -11 -10 -10 -10 -10 -9 -10 -9 -9 -8 -8 -8 -8 -7 -7 -7 -7 -7 -7 -7 -7 -7 -7 -7 -7 -8 -8 -8 -8 -9 -9 -9 -8 -7 -8 -8 -8 -8 -8 -8
-11 -11 -11 -11 -11 -11 -11 -10 -10 -10 -10 -10 -10 -9 -9 -9 -9 -8 -8 -7 -7 -7 -7 -8 -8 -8 -8 -8 -7 -7 -8 -8 -8 -8 -8 -8 -8 -9 -9 -9 -8 -8 -8 -8 -8 -8 -8
-11 -11 -11 -12 -11 -12 -12 -11 -11 -10 -10 -10 -9 -9 -8 -8 -8 -8 -8 -8 -8 -7 -7 -7 -8 -8 -8 -8 -8 -7 -8 -9 -8 -8 -8 -8 -8 -7 -7 -7 -8 -8 -8 -9 -9 -9 -9

GFSGBSN_700_temp_138.txt.gz
Temp
2 1 2 2 2 2 2 2 2 2 3 3 3 3 3 3 3 3 3 4 4 4 4 4 4 5 5 5 4 4 4 5 5 5 5 5 5 5 5 5 5 5 5 5 5 5 5
2 2 1 2 2 2 2 2 2 2 2 2 2 2 2 2 2 2 3 3 3 3 4 4 4 4 4 4 4 4 4 4 4 4 4 4 5 5 4 5 4 5 5 4 5 5 5
2 2 3 1 2 1 1 2 1 1 2 2 2 2 2 1 1 2 2 2 3 3 3 3 3 3 3 3 4 4 4 4 4 4 4 4 4 4 4 4 4 4 4 4 5 5 4
2 2 2 3 3 3 1 1 1 1 1 2 2 1 2 2 1 1 1 2 2 3 3 3 3 2 3 3 3 3 3 3 3 4 4 4 4 4 4 4 4 3 4 4 4 4 4
1 2 2 2 2 3 3 1 2 1 1 1 1 2 1 1 1 1 1 1 1 2 2 2 2 2 2 3 3 3 3 3 3 3 3 3 3 4 4 3 2 3 5 3 3 3 4
1 1 1 1 1 2 2 2 2 1 1 1 1 1 1 1 1 1 1 1 1 1 2 2 1 2 3 3 3 2 2 2 2 2 2 2 3 2 3 2 5 4 3 2 2 2 4
-1 -0 0 0 1 1 1 2 3 2 1 1 1 1 1 2 1 1 1 0 1 1 1 1 1 1 1 2 2 2 2 1 2 1 1 2 1 2 1 3 2 2 2 1 2 1 3
-1 -1 -1 -1 -0 0 0 1 1 2 2 1 0 1 1 1 1 1 0 1 1 0 0 1 1 1 0 1 1 1 1 1 1 0 1 1 1 1 2 2 1 1 -0 1 1 1 1
-2 -2 -2 -1 -1 -1 -1 -0 -0 1 1 1 0 0 0 0 0 0 0 0 0 -0 -0 0 1 1 1 -0 -0 0 1 1 0 1 1 1 -0 1 1 1 1 -1 -0 -1 -1 -1 0
-3 -2 -2 -2 -2 -1 -1 -1 -1 -1 -1 -0 0 0 -0 0 0 0 0 0 0 -1 -1 -0 2 1 0 -1 -1 -0 -0 0 0 -1 -0 -1 1 0 -1 -2 -0 -0 -0 -0 -1 -2 2
-3 -3 -3 -3 -2 -2 -2 -1 -1 -1 -1 -1 -1 -1 0 -0 -0 -0 -0 -1 -0 -3 -2 1 1 0 1 -1 -1 -1 -0 -0 -1 0 0 -1 -0 -1 -2 -2 -1 -2 -1 -1 -2 -3 -2
-4 -4 -3 -3 -3 -2 -2 -2 -2 -2 -2 -2 -2 -2 -1 -1 -1 -1 -1 -1 -1 -6 -2 0 0 0 -0 -2 -2 -1 -1 -1 -1 -1 -1 -1 -1 -2 -3 -2 -1 -1 -1 -3 -3 -2 1
-5 -4 -4 -3 -3 -3 -2 -2 -2 -2 -2 -2 -2 -3 -2 -2 -2 -1 -1 -2 -3 -7 -2 -1 -2 -1 -2 -3 -3 -2 -2 -2 -1 -2 -2 -2 -3 -2 -2 -3 -3 -3 -2 3 3 2 3
-6 -5 -5 -4 -3 -3 -3 -2 -2 -2 -3 -3 -3 -3 -3 -3 -3 -2 -2 -3 -5 -3 -2 -2 -2 -2 -2 -3 -3 -3 -2 -3 -2 -1 -1 -1 -2 -4 -3 -3 -3 -4 -3 -0 -1 2 2
-7 -7 -6 -5 -4 -3 -3 -2 -2 -3 -3 -4 -5 -5 -5 -3 -4 -3 -3 -4 -3 -3 -3 -2 -3 -3 -2 -3 -3 -3 -2 -2 -3 -2 -1 -1 -3 -4 -3 -3 -3 -5 -3 -5 -5 -3 -2
-8 -8 -7 -6 -5 -4 -3 -3 -3 -3 -3 -4 -6 -5 -4 -4 -4 -4 -4 -4 -3 -2 -4 -2 -0 -2 -2 -3 -3 -3 -3 -4 -2 -2 -2 -2 -4 -5 -4 -4 -4 -5 -5 -4 -4 -2 -1
-9 -8 -7 -7 -6 -5 -4 -3 -3 -3 -4 -5 -7 -7 -6 -6 -6 -5 -5 -5 -4 -3 -4 -3 -2 -2 -2 -3 -2 -3 -3 -3 -3 -2 -2 -2 -3 -5 -5 -5 -4 -6 -5 -6 -5 -4 -1
-9 -8 -8 -7 -7 -6 -5 -3 -3 -3 -5 -8 -8 -8 -6 -6 -6 -7 -5 -5 -5 -5 -5 -4 -3 -2 -3 -3 -3 -4 -5 -2 -3 -2 -3 -3 -4 -4 -4 -5 -5 -5 -5 -6 -4 -3 -4
-9 -8 -8 -8 -8 -6 -5 -4 -4 -4 -5 -6 -8 -7 -6 -6 -6 -6 -5 -5 -4 -5 -5 -3 -3 -3 -3 -3 -4 -4 -4 -3 -3 -3 -3 -3 -4 -5 -5 -6 -6 -6 -6 -6 -6 -7 -5
-9 -9 -9 -8 -8 -6 -4 -3 -3 -3 -4 -5 -7 -7 -7 -8 -6 -5 -6 -6 -5 -6 -5 -3 -3 -3 -3 -4 -3 -4 -3 -4 -4 -5 -4 -4 -4 -3 -2 -3 -5 -6 -6 -6 -7 -6 -4
-10 -9 -9 -9 -8 -4 -3 -3 -2 -2 -3 -5 -7 -7 -6 -7 -6 -5 -6 -6 -6 -6 -5 -4 -4 -3 -3 -4 -4 -5 -4 -4 -6 -6 -5 -5 -4 -4 -5 -6 -5 -6 -6 -6 -7 -6 -7
-10 -10 -9 -9 -8 -3 -3 -3 -3 -3 -4 -5 -7 -6 -6 -4 -7 -7 -7 -6 -5 -5 -5 -6 -5 -4 -3 -3 -3 -4 -3 -5 -5 -6 -6 -5 -6 -5 -6 -6 -6 -6 -6 -7 -7 -7 -6
-10 -10 -9 -8 -7 -4 -3 -3 -4 -5 -6 -6 -7 -6 -5 -6 -8 -8 -5 -6 -7 -6 -7 -7 -6 -5 -4 -3 -3 -3 -4 -4 -4 -4 -5 -5 -6 -7 -4 -6 -6 -7 -5 -6 -6 -6 -6
-10 -10 -9 -9 -8 -8 -7 -6 -6 -6 -6 -6 -6 -6 -6 -7 -7 -6 -7 -8 -7 -8 -7 -8 -7 -5 -4 -4 -4 -5 -5 -5 -5 -5 -6 -6 -7 -7 -5 -7 -5 -6 -6 -7 -7 -6 -6
-10 -10 -10 -9 -9 -8 -8 -7 -7 -6 -5 -6 -6 -6 -6 -7 -8 -8 -8 -8 -8 -8 -8 -7 -6 -6 -5 -5 -5 -6 -7 -7 -7 -7 -7 -7 -7 -7 -6 -5 -5 -7 -6 -7 -7 -7 -6
-10 -10 -10 -10 -9 -9 -9 -9 -8 -7 -6 -6 -6 -5 -5 -5 -9 -8 -8 -8 -8 -8 -8 -7 -6 -6 -6 -6 -6 -6 -6 -6 -8 -8 -7 -7 -8 -7 -7 -5 -4 -6 -6 -7 -7 -7 -7
-10 -11 -11 -10 -10 -10 -9 -9 -8 -8 -7 -7 -6 -6 -6 -7 -9 -8 -8 -8 -8 -8 -8 -7 -7 -7 -6 -6 -7 -6 -7 -6 -7 -8 -9 -9 -9 -7 -7 -6 -6 -7 -7 -7 -7 -7 -7
-10 -11 -11 -10 -10 -10 -10 -9 -9 -9 -8 -7 -7 -7 -6 -6 -8 -9 -9 -8 -8 -6 -7 -8 -7 -7 -7 -7 -7 -8 -7 -7 -7 -7 -8 -8 -8 -8 -7 -7 -6 -8 -8 -8 -8 -8 -8
-11 -11 -11 -11 -10 -10 -10 -9 -9 -9 -9 -9 -9 -9 -8 -8 -9 -9 -9 -8 -8 -7 -6 -7 -7 -7 -7 -7 -7 -7 -8 -7 -8 -7 -8 -8 -7 -7 -7 -7 -8 -8 -8 -8 -8 -8 -9

GFSGBSN_700_temp_141.txt.gz
Temp
2 2 2 2 2 2 2 2 3 2 3 3 3 3 3 3 3 3 3 4 4 4 4 4 4 4 4 5 3 6 5 5 5 5 5 5 5 4 5 6 5 5 6 5 4 6 6
3 2 2 2 2 1 1 2 2 2 2 2 2 2 2 3 3 2 3 3 3 3 3 3 4 3 4 4 4 5 5 5 5 5 5 5 4 5 4 4 5 5 5 4 4 4 4
2 2 2 2 2 1 1 2 2 2 2 2 2 2 2 2 2 2 3 2 2 3 3 3 3 3 3 3 4 4 4 4 5 5 4 5 5 4 3 4 5 5 5 5 5 4 3
2 2 2 2 2 3 2 2 1 1 1 1 2 2 2 2 2 2 2 2 2 2 3 3 3 3 3 4 3 3 4 4 4 4 4 5 4 4 4 3 4 4 4 6 6 4 4
1 1 1 1 2 2 2 2 2 2 1 1 2 2 2 2 1 1 1 2 1 1 2 2 2 2 2 4 4 2 3 3 4 4 4 4 4 3 4 3 5 5 7 7 7 5 3
0 0 1 1 1 1 2 2 2 3 2 2 1 1 2 1 1 1 1 1 1 1 1 2 2 2 3 2 3 3 3 3 3 3 3 3 3 3 3 4 6 7 7 6 5 5 4
-1 -0 -0 0 0 0 1 1 2 2 2 2 1 1 1 1 1 1 1 1 1 1 1 2 1 2 2 2 2 2 2 2 2 2 2 1 2 4 5 4 3 3 4 5 5 4 2
-1 -1 -1 -1 -1 -0 -0 -0 0 1 1 1 1 1 1 0 0 2 1 1 1 -0 1 2 1 1 2 2 1 2 2 2 1 1 2 2 3 4 3 3 2 3 3 4 4 3 2
-2 -2 -2 -2 -2 -1 -1 -1 -1 -0 0 0 0 0 -0 -0 0 1 1 0 1 1 0 2 -0 1 2 1 1 0 1 1 1 2 2 3 3 2 3 1 2 3 3 3 2 2 3
-3 -3 -2 -2 -2 -2 -2 -2 -1 -1 -1 -1 -1 -1 -1 -1 -1 0 0 0 0 -0 -0 1 1 2 1 2 1 0 -0 0 1 2 2 3 1 1 1 1 1 3 2 2 1 2 5
-4 -4 -3 -3 -3 -2 -2 -2 -2 -2 -2 -2 -2 -2 -1 -2 -2 -1 -1 -0 -0 -1 -2 0 -0 -0 1 1 1 0 -1 -1 1 1 1 2 -0 -0 1 1 1 2 1 1 0 1 2
-5 -4 -4 -4 -3 -3 -3 -3 -2 -2 -3 -2 -2 -2 -2 -3 -1 -2 -1 -1 -1 -2 -3 -1 -1 -1 -1 -1 -1 -0 -1 -1 0 1 -0 2 -0 -0 1 -1 1 1 1 1 1 1 4
-6 -5 -5 -5 -4 -4 -4 -3 -3 -3 -3 -3 -3 -3 -3 -3 -3 -2 -2 -2 -3 -4 -2 -1 -1 -1 -1 -0 -0 -1 -1 -1 -0 -0 0 -1 -1 -1 -1 -1 -1 -1 1 4 4 4 6
-6 -6 -6 -5 -5 -5 -4 -4 -4 -3 -3 -3 -4 -4 -3 -3 -3 -3 -4 -4 -4 -2 -2 -2 -2 -1 -0 0 -0 -1 -0 -0 -0 1 3 1 0 -2 -2 -1 1 -0 0 3 3 6 6
-8 -7 -7 -7 -6 -5 -5 -5 -4 -4 -4 -4 -5 -5 -4 -3 -4 -4 -5 -4 -4 -3 -2 -2 -1 -1 0 0 -0 -1 -0 0 0 0 2 2 2 -1 -3 -3 -1 -1 -0 -1 -2 1 1
-9 -9 -8 -8 -7 -7 -6 -5 -5 -5 -5 -6 -6 -8 -5 -4 -5 -6 -5 -5 -4 -4 -3 -2 -2 -1 -0 0 -1 -1 -0 0 0 -1 -0 1 -0 -2 -4 -3 -3 -2 -2 -1 -1 1 3
-12 -11 -9 -8 -8 -8 -7 -6 -6 -6 -8 -8 -9 -9 -5 -6 -7 -6 -6 -5 -5 -4 -3 -4 -2 -2 -0 0 -1 -1 -0 -1 -0 -2 -2 -1 -0 -2 -4 -3 -1 -3 -3 -3 -1 0 2
-12 -11 -11 -9 -9 -8 -8 -7 -7 -8 -10 -9 -10 -9 -6 -8 -7 -7 -6 -5 -4 -5 -5 -4 -4 -3 -2 -1 -1 -1 -1 -1 -2 -3 -2 -2 -1 -2 -2 -3 -2 -2 -3 -3 -2 0 -1
-12 -11 -11 -10 -9 -9 -8 -8 -8 -10 -10 -9 -8 -10 -9 -8 -8 -7 -6 -6 -6 -5 -5 -5 -3 -4 -4 -3 -3 -4 -2 -3 -3 -3 -2 -3 -2 -1 -3 -4 -4 -4 -3 -3 -3 -4 -3
-12 -12 -11 -10 -9 -9 -9 -9 -9 -9 -10 -10 -9 -9 -8 -8 -8 -7 -7 -6 -6 -5 -5 -5 -4 -4 -4 -5 -6 -5 -4 -4 -4 -3 -4 -4 -3 -1 0 -0 -2 -4 -3 -3 -4 -4 -2
-12 -11 -10 -9 -9 -9 -9 -9 -9 -9 -9 -9 -9 -9 -8 -8 -8 -7 -7 -6 -6 -6 -6 -5 -5 -4 -4 -5 -6 -4 -4 -5 -5 -4 -4 -4 -4 -3 -3 -3 -3 -3 -3 -3 -4 -5 -5
-11 -10 -10 -10 -10 -10 -10 -9 -9 -9 -9 -9 -9 -9 -9 -8 -7 -7 -7 -7 -6 -6 -6 -6 -4 -4 -4 -4 -4 -4 -5 -5 -5 -5 -5 -4 -3 -4 -4 -4 -3 -3 -4 -4 -5 -5 -5
-10 -10 -10 -10 -10 -10 -10 -9 -6 -7 -8 -9 -9 -8 -8 -8 -8 -8 -7 -6 -6 -6 -6 -4 -4 -4 -4 -3 -4 -5 -4 -2 -2 -2 -3 -4 -4 -4 -2 -3 -3 -4 -4 -5 -5 -6 -6
-10 -10 -10 -10 -10 -10 -10 -8 -4 -4 -6 -6 -5 -7 -8 -7 -7 -6 -7 -6 -6 -5 -6 -5 -5 -5 -5 -4 -5 -6 -6 -6 -5 -5 -5 -5 -5 -4 -2 -4 -4 -3 -5 -4 -5 -5 -6
-10 -10 -10 -10 -10 -10 -9 -5 -3 -4 -5 -6 -6 -8 -8 -7 -7 -7 -7 -6 -6 -5 -6 -6 -6 -6 -6 -6 -7 -8 -8 -7 -6 -6 -6 -5 -5 -5 -3 -4 -3 -5 -4 -5 -5 -5 -6
-10 -10 -11 -10 -10 -10 -8 -6 -4 -5 -5 -7 -8 -7 -7 -7 -7 -7 -6 -6 -6 -6 -7 -7 -7 -7 -7 -7 -7 -7 -8 -7 -7 -7 -7 -6 -6 -5 -5 -3 -3 -4 -6 -6 -6 -6 -6
-11 -11 -11 -10 -10 -9 -9 -8 -8 -7 -7 -7 -7 -7 -6 -7 -7 -7 -6 -6 -7 -8 -7 -7 -7 -8 -8 -8 -7 -7 -6 -5 -6 -6 -7 -7 -7 -6 -5 -4 -4 -6 -5 -6 -6 -6 -7
-11 -11 -10 -10 -10 -9 -8 -8 -7 -7 -7 -6 -7 -6 -6 -6 -7 -6 -7 -7 -8 -7 -5 -7 -8 -8 -8 -8 -7 -6 -6 -5 -5 -5 -7 -7 -7 -6 -5 -4 -4 -7 -6 -6 -7 -7 -7
-11 -11 -10 -10 -9 -9 -9 -8 -8 -8 -7 -6 -6 -6 -6 -6 -8 -7 -7 -8 -7 -7 -6 -8 -8 -8 -8 -7 -6 -6 -6 -6 -5 -6 -7 -6 -6 -5 -5 -5 -6 -7 -8 -7 -7 -8 -8

GFSGBSN_700_temp_144.txt.gz
Temp
2 2 2 2 2 2 2 2 2 2 2 3 3 3 4 3 3 3 3 4 4 4 5 5 5 5 5 6 4 6 5 5 5 5 5 6 5 4 5 6 7 7 6 7 6 6 7
2 2 3 2 2 2 2 1 2 2 2 2 2 3 2 2 2 2 3 3 3 3 4 4 4 5 4 5 4 5 5 5 5 5 5 5 4 4 5 5 6 6 6 6 6 6 5
2 2 2 2 2 2 2 2 1 1 1 2 2 2 2 3 2 2 2 2 3 3 3 3 3 3 4 4 4 5 5 4 5 5 4 3 5 5 4 4 5 5 5 5 6 6 5
2 2 2 2 2 2 2 3 2 2 1 1 1 2 1 2 2 2 2 2 2 2 2 2 3 2 4 3 4 4 4 4 4 5 4 4 5 5 4 4 5 5 5 6 7 6 5
1 1 2 1 1 2 2 2 2 2 2 1 1 1 1 1 1 1 1 1 1 2 2 2 2 2 3 4 4 3 4 3 3 4 4 4 4 4 3 4 4 5 6 7 7 6 5
0 0 1 1 1 1 1 1 2 2 2 2 2 1 0 0 1 1 1 1 1 2 1 1 2 1 3 3 3 4 4 4 3 3 4 4 3 3 4 4 5 7 7 7 7 6 5
-1 -1 -0 0 0 1 1 1 1 1 2 2 2 1 1 0 1 1 1 1 1 1 2 2 1 1 2 2 2 3 3 3 3 2 3 2 2 3 4 5 6 5 6 6 7 6 5
-2 -1 -1 -1 -1 -0 -0 -0 -0 -0 0 1 1 1 1 0 0 1 1 1 1 1 1 1 2 2 2 1 2 2 1 3 3 2 2 3 3 3 5 5 5 4 5 6 6 6 4
-2 -2 -2 -2 -2 -2 -1 -1 -1 -1 -1 -1 -0 -0 0 0 -0 -1 1 0 -0 0 0 2 2 2 2 1 1 1 1 2 1 1 2 3 4 4 3 4 4 4 4 5 5 4 4
-4 -3 -3 -3 -3 -2 -3 -2 -2 -2 -2 -2 -1 -1 -1 -1 -1 -1 -1 -0 -0 0 -0 1 2 4 1 1 0 2 1 2 2 2 3 4 4 3 4 3 3 4 4 4 3 3 5
-4 -4 -4 -4 -3 -3 -3 -3 -3 -3 -2 -2 -2 -2 -2 -2 -1 -1 -0 -1 -1 -1 -2 2 2 2 1 2 2 2 2 1 2 2 2 3 3 2 2 3 3 3 2 3 2 2 3
-5 -5 -5 -4 -4 -4 -4 -3 -3 -3 -3 -3 -3 -3 -3 -3 -3 -2 -1 -2 -3 -3 -3 1 1 1 1 1 0 2 1 1 1 2 2 3 3 2 2 2 2 1 2 2 2 3 4
-5 -5 -5 -5 -5 -4 -4 -4 -4 -4 -4 -4 -4 -3 -3 -3 -3 -3 -3 -2 -4 -3 -1 -0 2 0 0 1 0 1 1 1 1 1 2 2 2 1 1 1 1 1 1 3 4 4 4
-6 -6 -6 -5 -5 -5 -5 -5 -5 -5 -5 -4 -4 -4 -4 -4 -3 -4 -5 -4 -4 -2 -2 -0 -0 0 1 1 0 1 1 1 0 2 3 2 2 1 -0 0 1 1 1 3 3 5 7
-8 -7 -7 -6 -6 -6 -6 -6 -6 -6 -6 -5 -6 -5 -6 -4 -4 -4 -6 -5 -4 -3 -1 -2 -1 0 0 1 1 1 0 0 1 1 2 3 3 2 0 -1 0 1 1 1 1 2 3
-9 -9 -9 -9 -8 -8 -8 -7 -7 -7 -7 -7 -8 -8 -7 -5 -5 -7 -7 -6 -5 -3 -2 -2 -2 -1 0 0 1 1 1 1 1 1 1 2 3 1 -1 -1 -1 -0 1 0 1 1 3
-11 -11 -11 -11 -11 -11 -9 -8 -8 -8 -9 -9 -9 -8 -7 -7 -8 -7 -7 -7 -5 -3 -3 -3 -2 -1 -0 1 1 1 0 1 1 1 1 1 1 0 -1 -2 -1 -2 -1 -1 0 2 2
-12 -12 -12 -12 -12 -11 -10 -9 -9 -9 -10 -9 -9 -9 -7 -8 -8 -9 -7 -6 -6 -5 -3 -3 -3 -2 -2 -0 1 1 0 1 0 1 0 -0 -0 1 -1 -1 -1 -0 -1 -1 -1 1 1
-12 -13 -13 -12 -12 -12 -11 -11 -10 -10 -10 -10 -9 -9 -8 -8 -8 -8 -7 -7 -6 -5 -4 -4 -4 -3 -2 -1 -1 -2 0 0 -0 -1 -1 -1 -2 -1 -0 -2 -2 -2 -1 -1 -1 -1 -1
-13 -12 -12 -12 -12 -12 -11 -11 -11 -11 -10 -11 -10 -9 -9 -9 -8 -8 -8 -7 -7 -6 -5 -5 -4 -3 -3 -3 -3 -2 -2 -2 -3 -2 -3 -2 -2 -1 0 -0 -1 -2 -1 -0 -1 -2 -1
-13 -12 -12 -12 -12 -12 -11 -11 -11 -11 -10 -11 -11 -9 -8 -8 -9 -8 -8 -7 -7 -7 -6 -5 -4 -4 -4 -4 -3 -4 -2 -4 -4 -3 -4 -3 -3 -2 -1 -1 -1 -2 -2 -1 -1 -2 -3
-12 -12 -12 -12 -12 -11 -11 -11 -10 -10 -11 -11 -10 -10 -9 -8 -7 -6 -8 -7 -6 -6 -6 -5 -5 -4 -4 -4 -4 -3 -3 -4 -4 -5 -6 -4 -4 -3 -3 -2 -2 -1 -2 -2 -2 -2 -3
-13 -12 -12 -11 -11 -11 -10 -10 -10 -11 -11 -11 -10 -9 -9 -8 -8 -8 -7 -7 -6 -5 -5 -5 -5 -4 -4 -4 -3 -4 -4 -4 -4 -6 -6 -4 -4 -4 -3 -3 -2 -2 -2 -3 -3 -3 -4
-12 -11 -11 -10 -10 -10 -10 -10 -10 -10 -10 -10 -10 -9 -9 -8 -8 -8 -6 -6 -6 -6 -5 -5 -5 -5 -4 -3 -4 -5 -6 -5 -6 -6 -6 -6 -4 -4 -3 -2 -3 -2 -3 -3 -3 -3 -4
-10 -10 -10 -10 -10 -10 -10 -10 -10 -10 -10 -10 -10 -9 -8 -8 -8 -8 -7 -8 -7 -6 -5 -5 -5 -4 -5 -5 -6 -7 -7 -7 -7 -6 -5 -5 -4 -4 -4 -3 -3 -4 -3 -3 -3 -3 -4
-10 -10 -10 -10 -10 -10 -9 -10 -10 -10 -10 -10 -10 -9 -9 -8 -7 -7 -7 -7 -7 -6 -6 -5 -5 -5 -5 -6 -6 -6 -6 -6 -6 -6 -5 -5 -5 -5 -5 -4 -4 -3 -3 -3 -4 -4 -5
-10 -10 -10 -11 -10 -10 -9 -9 -9 -8 -8 -9 -9 -9 -9 -8 -8 -7 -7 -6 -7 -6 -6 -5 -6 -6 -6 -6 -7 -7 -7 -6 -6 -6 -6 -6 -6 -6 -6 -5 -3 -5 -4 -4 -5 -6 -5
-11 -11 -10 -10 -10 -9 -8 -8 -7 -5 -5 -6 -9 -8 -8 -8 -8 -7 -6 -7 -6 -6 -6 -6 -6 -7 -7 -7 -7 -7 -6 -6 -6 -6 -7 -7 -8 -7 -6 -6 -4 -6 -5 -5 -6 -6 -6
-11 -11 -11 -10 -9 -8 -8 -8 -7 -7 -7 -7 -8 -8 -8 -9 -8 -7 -6 -6 -6 -6 -6 -5 -5 -6 -7 -7 -7 -6 -6 -6 -6 -6 -6 -7 -7 -6 -6 -5 -5 -5 -6 -6 -7 -7 -7